www.pogodaiklimat.ru

Погода и климат >> Архив погоды >> Россия >> Камчатский край >> Петропавловск-Камчатский


АРХИВ ПОГОДЫ в Петропавловск-Камчатском

Время (UTC), дата Ветер
(напр.,м/с)
 
Видим.   Явления Облачность Т
(С)
Тd
(С)
f
(%)
Тe
(С)
Тes
(С)
Комфортность P
(гПа)
Po
(гПа)
Тmin
(С)
Tmax
(С)
R
(мм)
R24
(мм)
S
(см)
00 11.11 СЗ 2 20 км 10/10 600 м
[Sc]
-0.9 -8.7 55 -4 -4 по сезону 1031.9 1028.8 -2.1
03 11.11 СЗ 2 20 км 10/10 600 м
[Sc]
-0.2 -7.5 58 -3 -3 по сезону 1029.9 1026.8
06 11.11 В 4
{10}
20 км 10/10 600 м
[Sc]
+1.6 -7.1 52 -3 -3 по сезону 1028.8 1025.8
09 11.11 В 3
{10}
4000 м слабый снег 10/0
[As op]
+1.2 -6.1 58 -3 -3 по сезону 1028.0 1024.9 +1.8 0.3
12 11.11 В 5-14
{15}
1000 м снег {метель} 10/0
[As op]
-0.3 -1.4 92 -7 -7 по сезону 1025.6 1022.5
15 11.11 В 7-14
{18}
2000 м слабый снег {метель} 10/0 600 м
[As op]
+0.3 -1.3 89 -7 -7 по сезону 1023.0 1019.9
18 11.11 В 5-13
{16}
2000 м слабый снег {метель} 10/0
[As op]
+0.5 -1.1 89 -6 -6 по сезону 1020.6 1017.5
21 11.11 В 7-18
{18}
1000 м снег 10/0
[As op]
+0.2 -0.8 93 -7 -7 по сезону 1018.5 1015.4 -0.6 14 16
00 12.11 В 5-15
{20}
1000 м снег {метель} [диам. отлож. мокр. снега 10 мм] 10/0 600 м
[As op]
+0.4 -0.6 93 -6 -6 по сезону 1015.4 1012.4
03 12.11 СВ 10-24
{24}
1000 м снег 10/0
[As op]
+0.5 -0.4 94 -8 -8 прохладно 1013.1 1010.0
06 12.11 В 11-24
{30}
2000 м слабый снег 10/0
[As op]
+1.8 -2.2 75 -6 -6 по сезону 1011.2 1008.2
09 12.11 СВ 9-20
{26}
2000 м слабый снег 10/0 600 м
[As op]
+2.7 -1.9 72 -4 -4 по сезону 1009.9 1006.9 +2.7 21
12 12.11 СВ 12-21
{30}
4000 м слабый снег 10/0
[As op]
+3.5 -1.6 69 -4 -4 по сезону 1009.0 1006.0
15 12.11 СВ 9-18
{25}
4000 м слабый дождь {снег} 10/0
[As op]
+4.1 -1.7 66 -2 -2 по сезону 1009.7 1006.7
18 12.11 СВ 8-18
{21}
10 км слабый дождь {снег} 10/0
[As op]
+4.5 -0.3 71 -1 -1 тепло 1009.4 1006.4
21 12.11 В 4-11
{18}
2000 м слабый дождь 10/0 600 м
[As op]
+3.8 +1.4 84 -1 -1 по сезону 1011.0 1008.0 +2.7 1 13
00 13.11 В 4-11
{18}
2000 м слабый дождь 10/0
[As op]
+3.8 +1.4 84 -1 -1 по сезону 1011.0 1008.0 +2.7 1 13
03 13.11 В 6-13
{16}
2000 м дождь 10/0
[As op]
+3.0 +0.6 84 -3 -3 по сезону 1012.4 1009.4
06 13.11 СВ 6-12
{15}
4000 м дождь 10/0 600 м
[As op]
+3.5 +0.3 80 -2 -2 по сезону 1012.6 1009.6
09 13.11 В 4
{13}
10 км слабый дождь 10/0 600 м
[As op]
+4.2 +0.5 77 0 0 тепло 1013.9 1010.9 +4.5 50
12 13.11 В 3
{12}
10 км слабый дождь 10/0
[As op]
+3.4 +0.5 81 -0 -0 тепло 1015.2 1012.2
15 13.11 В 3
{11}
10 км слабый дождь 10/0
[As op]
+3.7 +0.3 78 0 0 тепло 1015.8 1012.8
18 13.11 В 4-10
{10}
10 км слабый дождь 10/10 300 м
[Frnb Ns]
+2.9 +0.1 82 -2 -2 по сезону 1016.9 1013.9
21 13.11 СВ 7-16
{16}
10 км в посл. час дождь 10/4 600 м
[Sc Ac trans Ci fib]
+3.9 -0.9 71 -2 -2 по сезону 1016.5 1013.5 +2.8 4 3
00 14.11 В 7-13
{16}
10 км слабый ливневой дождь со снегом 10/10 600 м
[Cb cap]
+3.1 -0.4 78 -3 -3 по сезону 1018.0 1015.0 +2.7
03 14.11 В 7-16
{17}
10 км слабый ливневой дождь 10/6 600 м
[Cb cap Ac As Ci fib]
+3.7 -1.1 71 -2 -2 по сезону 1017.7 1014.7
06 14.11 СВ 6-13
{17}
20 км в посл. час ливневой дождь 10/10 600 м
[Sc diur, vesp]
+3.6 -1.9 67 -2 -2 по сезону 1018.6 1015.6
09 14.11 СВ 8-17
{17}
20 км 10/8 600 м
[Sc Ci fib]
+3.9 -2.2 64 -2 -2 по сезону 1018.7 1015.6 +4.0 2
12 14.11 В 8-17
{18}
20 км 10/8 600 м
[Sc Ac trans Ci fib]
+3.5 -1.9 68 -3 -3 по сезону 1018.0 1015.0
15 14.11 СВ 5-15
{22}
20 км 10/6 600 м
[Sc Ac trans Ci fib]
+2.8 -4.1 60 -2 -2 по сезону 1017.7 1014.7
18 14.11 В 9-17
{18}
20 км 10/8 600 м
[Sc Ci fib]
+2.4 -5.7 55 -4 -4 по сезону 1017.2 1014.2
21 14.11 СВ 5-17
{20}
20 км 10/10 600 м
[Sc]
+3.3 -6.6 48 -1 -1 по сезону 1016.7 1013.7 +2.1 3
00 15.11 СВ 5-12
{20}
20 км 10/10 600 м
[Sc]
+4.1 -5.9 48 -0 -0 тепло 1015.0 1012.0
03 15.11 В 5-15
{17}
20 км 10/10 600 м
[Sc]
+4.0 -4.1 56 -0 -0 тепло 1012.4 1009.4
06 15.11 СВ 8-19
{19}
20 км 10/10 600 м
[Sc]
+3.0 -6.2 51 -3 -3 по сезону 1012.0 1009.0
09 15.11 СВ 6-15
{20}
20 км 10/10 600 м
[Sc]
+2.6 -6.6 51 -3 -3 по сезону 1011.9 1008.9 +4.4
12 15.11 СВ 6-13
{15}
20 км 10/10 600 м
[Sc]
+2.3 -7.8 47 -3 -3 по сезону 1010.8 1007.8
15 15.11 С 4
{12}
20 км 10/10 600 м
[Sc]
+0.6 -7.3 55 -4 -4 по сезону 1009.5 1006.5
18 15.11 С 3 20 км 9/5 600 м
[Sc Ac trans Ci fib]
+0.5 -7.9 53 -3 -3 по сезону 1008.7 1005.6
21 15.11 С 4 50 км 6/1 1000 м
[Sc Ac trans Ci fib]
+0.4 -8.3 52 -4 -4 по сезону 1008.1 1005.1 +0.2 <0.5
00 16.11 С 4 50 км 9/0
[Ac trans Cs]
+1.1 -8.4 49 -3 -3 по сезону 1007.5 1004.5
03 16.11 С 2 50 км 9/0
[Ac trans Cs]
+2.7 -6.0 53 0 +1 тепло 1006.6 1003.6
06 16.11 С 4 50 км 8/0
[Ac trans Ci fib]
+1.6 -6.4 55 -3 -3 по сезону 1007.7 1004.7
09 16.11 С 5 50 км 6/0
[Ci fib]
+0.1 -8.8 51 -5 -5 по сезону 1009.2 1006.2 +3.0
12 16.11 С 4 50 км 1/0
[Ci fib]
-0.8 -8.3 57 -6 -6 по сезону 1009.9 1006.9
15 16.11 С 5 50 км ясно -1.7 -8.8 58 -8 -8 по сезону 1011.0 1007.9
18 16.11 С 4 50 км ясно -1.8 -9.2 57 -7 -7 по сезону 1012.2 1009.2
21 16.11 С 3 50 км 6/0
[Ac trans Ci fib]
-2.9 -8.2 67 -8 -8 по сезону 1013.3 1010.2 -3.1 <0.5
00 17.11 З 3 50 км 1/0
[Ac trans]
-2.2 -7.0 70 -7 -6 по сезону 1013.9 1010.8
03 17.11 З 2 50 км 3/0
[Ci fib]
-0.2 -7.4 58 -3 -2 по сезону 1012.7 1009.7
06 17.11 С 1 50 км 10/0
[Ac As Ci sp]
-1.1 -6.7 66 -3 -3 по сезону 1013.0 1009.9
09 17.11 С 1 50 км 10/0
[Ac und]
-0.9 -6.3 67 -3 -3 по сезону 1013.0 1010.0 -0.1
12 17.11 ЮВ 2 50 км 9/0
[Ac trans Ci fib]
-1.4 -6.6 68 -5 -5 по сезону 1012.4 1009.4
15 17.11 В 1 20 км слабый ливневой снег 10/6 600 м
[Cb cap Ac As]
-1.1 -5.5 72 -3 -3 по сезону 1011.3 1008.3
18 17.11 З 2 4000 м слабый ливневой снег 10/10 600 м
[Cb cap]
-1.2 -3.6 84 -5 -5 по сезону 1008.7 1005.7

 

Местоположение метеостанции Петропавловск-Камчатский (Камчатский край, Россия): широта 52.87 долгота 158.60 высота над уровнем моря 24 м.

В архиве по умолчанию представлена погода в Петропавловск-Камчатском за последнюю неделю. Архивные данные за месяц целиком и за предыдущие месяцы, начиная с января 2011 года, Вы можете получить, выбрав интересующий диапазон дат из раскрывающегося списка и нажав кнопку "Ввод!".


*Определитесь, кто Вы:
робот инопланетянин человек

Внимание! Время в таблицах - всемирное. Для получения местного времени необходимо прибавить поправку, которая в Петропавловск-Камчатском равна 12 ч.

Смотрите также архив погоды в соседних городах и на ближайших метеорологических станциях:

Погода в Петропавловском Маяке (Камчатский край, Россия) (7 км)
Погода в Петропавловск-Камч. 2 (Камчатский край, Россия) (24 км)
Погода в Сосновке (Камчатский край, Россия) (31 км)
Погода в Начиках (Камчатский край, Россия) (66 км)
Погода в Водопадной (Камчатский край, Россия) (124 км)
Погода в Пущино (Камчатский край, Россия) (151 км)
Погода в Большерецке (Камчатский край, Россия) (155 км)
Погода в Семячике (Камчатский край, Россия) (163 км)
Погода в Мильково (Камчатский край, Россия) (201 км)
Погода в Озерной (Камчатский край, Россия) (215 км)

Пояснения к столбцам:

Ветер - указаны скорость ветра в м/с - средняя за 10 мин, порывы в срок и между сроками (в фигурных скобках) и направление, откуда дует ветер: С - северный, СВ - северо-восточный, В - восточный, ЮВ - юго-восточный, Ю - южный, ЮЗ - юго-западный, З - западный, СЗ - северо-западный.
Видимость - горизонтальная дальность видимости в метрах или километрах. При видимости от 1 до 10 км при отсутствии осадков обычно наблюдается дымка, при ухудшении видимости до 1 км и менее - туман. В сухую погоду видимость может ухудшаться дымом, пылью или мглою.
Явления - указаны атмосферные явления, наблюдавшиеся в срок или в последний час перед сроком; фигурными скобками обозначены явления, наблюдавшиеся между сроками (за 1-3 часа до срока); квадратными скобками обозначены град или гололедные отложения с указанием их диаметра в мм.
Облачность - указаны через наклонную черту общая и нижняя облачность в баллах и высота нижней границы облаков в метрах; квадратными скобками обозначены формы облаков: Ci - перистые, Cs - перисто-слоистые, Cc - перисто-кучевые, Ac - высококучевые, As - высокослоистые, Sc - слоисто-кучевые, Ns - слоисто-дождевые, Cu - кучевые, Cb - кучево-дождевые. Подробнее классификацию облаков см. в Атласе облаков (PDF).
T - Температура воздуха - температура, измеренная на высоте 2 м над землей.
Td - Температура точки росы - температура, при понижении до которой содержащийся в воздухе водяной пар достигнет насыщения.
f - Относительная влажность воздуха - влажноcть воздуха, измеренная на высоте 2 м над землей.
Te - Эффективная температура - температура, которую ощущает одетый по сезону человек в тени. Характеристика душности погоды. При расчете учитывается влияние влажности воздуха и скорости ветра на теплоощущения человека.
Tes - Эффективная температура на солнце - температура, которую ощущает человек, с поправкой на солнечный нагрев. Характеристика знойности погоды. Зависит от высоты солнца над горизонтом, облачности и скорости ветра. Ночью, в пасмурную погоду, а также при ветре 12 м/с и более поправка равна нулю.
P - Атмосферное давление - приведенное к уровню моря атмосферное давление.
Po - Атмосферное давление - измеренное на уровне метеостанции атмосферное давление.
Tmin - Минимальная температура - минимум температуры воздуха на высоте 2 м над землей.
Tmax - Максимальная температура - максимум температуры воздуха на высоте 2 м над землей.
R - Количество осадков - Количество выпавших осадков за период времени, мм. При наведении курсора мыши на число - период времени, за который выпало указанное количество осадков.
R24 - Количество осадков - Количество выпавших осадков за 24 часа, мм.
S - Снежный покров - Высота снежного покрова, см. При наведении курсора мыши на число - состояние снежного покрова и степень покрытия местности в баллах.